This is the latest recevied weather packets stored in our database for station/object TF3VP-10. If no packets are shown the sender has not sent any weather packets the latest 10 day(s).
| Time | Temp. | Humidity | Pressure | Rain* | Wind** | Luminosity | Snow |
|---|---|---|---|---|---|---|---|
| 1778163650 | 5° C | 35% | 1034.7 hPa | - | - | - | - |
| 1778162747 | 5° C | 35% | 1034.6 hPa | - | - | - | - |
| 1778161847 | 5° C | 35% | 1034.5 hPa | - | - | - | - |
| 1778160948 | 4.44° C | 37% | 1034.5 hPa | - | - | - | - |
| 1778160047 | 4.44° C | 36% | 1034.6 hPa | - | - | - | - |
| 1778159149 | 4.44° C | 36% | 1034.6 hPa | - | - | - | - |
| 1778158248 | 4.44° C | 37% | 1034.5 hPa | - | - | - | - |
| 1778157347 | 3.89° C | 38% | 1034.7 hPa | - | - | - | - |
| 1778156447 | 3.89° C | 38% | 1034.5 hPa | - | - | - | - |
| 1778155548 | 3.89° C | 39% | 1034.6 hPa | - | - | - | - |
| 1778154648 | 3.33° C | 39% | 1034.7 hPa | - | - | - | - |
| 1778153747 | 2.78° C | 40% | 1034.7 hPa | - | - | - | - |
| 1778152847 | 2.78° C | 44% | 1034.9 hPa | - | - | - | - |
| 1778151948 | 2.78° C | 43% | 1034.8 hPa | - | - | - | - |
| 1778151049 | 2.78° C | 43% | 1034.7 hPa | - | - | - | - |
| 1778150147 | 2.22° C | 45% | 1034.9 hPa | - | - | - | - |
| 1778149248 | 2.22° C | 46% | 1034.8 hPa | - | - | - | - |
| 1778148347 | 2.22° C | 44% | 1034.8 hPa | - | - | - | - |
| 1778146547 | 1.67° C | 46% | 1035.1 hPa | - | - | - | - |
| 1778145647 | 1.67° C | 47% | 1034.9 hPa | - | - | - | - |
| 1778144747 | 1.67° C | 46% | 1035.1 hPa | - | - | - | - |
| 1778143847 | 1.11° C | 48% | 1034.9 hPa | - | - | - | - |
| 1778142948 | 1.11° C | 48% | 1034.8 hPa | - | - | - | - |
| 1778142048 | 0.56° C | 48% | 1035 hPa | - | - | - | - |
| 1778141147 | 0° C | 48% | 1034.9 hPa | - | - | - | - |
* Rain since midnight (hover to see other rain measurements)
** Current wind speed in m/s (hover to see current wind gust speed)